Location: Chandler
(33.3060°N, 111.8410°W)
Time: 07:09:23
(UTC-07:00)

Amateur Radio Satellites - All Passes

Search period start: 19 April 2015 06:39
Search period end: 20 April 2015 06:39
Location: Chandler, 33.3060°N, 111.8410°W

Satellite Date Start Highest point End Downlink Frequencies (MHz)
Time Altitude Azimuth
CUBESAT XI-V 19 Apr 06:43:45 06:48:11 41° 262° (W) 06:52:34 437.345
SRMSAT 19 Apr 06:59:05 07:03:27 21° 177° (S) 07:07:51 437.500
JUGNU 19 Apr 07:04:00 07:08:02 19° 187° (S) 07:12:03 437.505
CUTE-I 19 Apr 07:04:42 07:09:59 67° 286° (WNW) 07:15:15 437.470
STRAND 1 19 Apr 07:08:39 07:13:38 51° 260° (W) 07:18:36 437.568
Cubesat XI-IV 19 Apr 07:12:09 07:17:22 56° 286° (WNW) 07:22:32 437.490
PRISM 19 Apr 07:12:15 07:15:48 25° 264° (W) 07:19:16 437.425
Cosmos 2499 19 Apr 07:41:02 07:47:40 30° 274° (W) 07:53:45 435.465 / 435.565
PCSat 19 Apr 08:04:07 08:06:16 13° 105° (ESE) 08:08:46 145.827
BRITE-PL 19 Apr 08:05:02 08:09:28 33° 97° (E) 08:14:16 437.365/2234.400
DOVE 4 19 Apr 08:05:18 08:07:41 14° 91° (E) 08:10:26 437.250
CANX-2 19 Apr 08:15:42 08:18:36 18° 93° (E) 08:21:37 2200.000
SEEDS 19 Apr 08:20:06 08:22:23 15° 92° (E) 08:24:52 437.485
CUTE 1.7 + AOD 2 19 Apr 08:25:41 08:28:56 21° 94° (E) 08:32:16 437.475
GOMX 1 19 Apr 08:29:35 08:34:15 39° 98° (E) 08:39:12 467.674
SRMSAT 19 Apr 08:47:54 08:52:01 19° 187° (S) 08:56:07 437.500
AAUSAT CUBESAT 2 19 Apr 08:53:47 08:57:15 26° 95° (E) 09:00:47 437.432
JUGNU 19 Apr 08:54:44 08:56:24 11° 196° (SSW) 08:57:56 437.505
CUBEBUG 2 19 Apr 08:55:18 08:56:06 11° 89° (E) 08:57:16 437.445
HO-68 19 Apr 09:03:21 09:10:29 65° 102° (ESE) 09:17:35 435.675
Oscar 11 19 Apr 09:06:42 09:09:21 16° 92° (E) 09:12:11 145.826/435.025
DELFI C3 19 Apr 09:16:47 09:18:58 15° 92° (E) 09:21:21 145.870
Cosmos 2491 19 Apr 09:20:39 09:27:26 25° 70° (ENE) 09:34:35 435.465 / 435.565
ANTELSAT 19 Apr 09:21:08 09:23:49 16° 69° (ENE) 09:26:43 437.575/2403.000
UWE-3 19 Apr 09:34:10 09:37:59 25° 95° (E) 09:41:53 435.000/436.395/437.385
COMPASS 1 19 Apr 09:40:01 09:44:13 67° 284° (WNW) 09:48:22 437.405
DOVE 4 19 Apr 09:40:50 09:45:45 56° 284° (WNW) 09:50:50 437.250
CINEMA 3 19 Apr 09:40:57 09:45:54 76° 102° (ESE) 09:50:56 145.822/145.860
PCSat 19 Apr 09:43:50 09:49:12 66° 297° (WNW) 09:54:36 145.827
BRITE-PL 19 Apr 09:43:55 09:47:52 24° 288° (WNW) 09:51:54 437.365/2234.400
QB50P2 19 Apr 09:44:17 09:46:12 13° 69° (ENE) 09:48:22 145.880/145.840
HUMSAT D 19 Apr 09:45:37 09:46:08 10° 90° (E) 09:46:59 437.325/437.525
O/OREOS (USA 219) 19 Apr 09:49:01 09:53:31 76° 252° (WSW) 09:57:58 437.305
CANX-2 19 Apr 09:50:50 09:54:36 29° 287° (WNW) 09:58:16 2200.000
SEEDS 19 Apr 09:54:28 09:58:22 35° 286° (WNW) 10:02:12 437.485
CUTE 1.7 + AOD 2 19 Apr 10:01:17 10:04:50 25° 288° (WNW) 10:08:16 437.475
FUNcube-1 19 Apr 10:02:40 10:07:00 40° 98° (E) 10:11:20 145.935
POPSAT HIP 1 19 Apr 10:05:56 10:09:14 23° 71° (ENE) 10:12:38 437.405
NANOSAT C BR1 19 Apr 10:06:04 10:09:22 23° 71° (ENE) 10:12:45 145.865
VELOX 1 19 Apr 10:08:07 10:09:02 11° 91° (E) 10:10:16 145.980
GOMX 1 19 Apr 10:08:26 10:12:11 21° 289° (WNW) 10:15:55 467.674
TIGRISAT 19 Apr 10:13:10 10:17:30 64° 76° (ENE) 10:21:59 435.000
UNISAT 6 19 Apr 10:14:06 10:18:28 68° 76° (ENE) 10:22:59 437.425
UKube-1 19 Apr 10:20:11 10:24:08 35° 98° (E) 10:28:08 .
AISAT 19 Apr 10:21:20 10:24:11 17° 93° (E) 10:27:13 437.250
YUBILEINY 19 Apr 10:23:39 10:31:05 33° 87° (E) 10:38:46 435.215
ZACube-1 19 Apr 10:24:52 10:29:29 77° 102° (ESE) 10:34:06 437.345
CUBEBUG 2 19 Apr 10:28:32 10:33:15 62° 284° (WNW) 10:37:57 437.445
AAUSAT CUBESAT 2 19 Apr 10:29:37 10:32:46 20° 289° (WNW) 10:35:46 437.432
POLYITAN 1 19 Apr 10:31:28 10:35:30 50° 75° (ENE) 10:39:37 437.675
50 SAT 19 Apr 10:32:37 10:35:51 23° 95° (E) 10:39:09 437.505
ESTCUBE 1 19 Apr 10:36:16 10:38:01 12° 91° (E) 10:40:02 437.505/2401.250
SRMSAT 19 Apr 10:38:49 10:40:33 11° 196° (SSW) 10:42:09 437.500
DUCHIFAT 1 19 Apr 10:41:21 10:45:29 64° 76° (ENE) 10:49:38 145.980
Oscar 11 19 Apr 10:41:43 10:45:40 33° 287° (WNW) 10:49:33 145.826/435.025
DELFI C3 19 Apr 10:50:37 10:54:16 32° 287° (WNW) 10:57:49 145.870
HO-68 19 Apr 10:52:29 10:57:41 21° 297° (WNW) 11:02:35 435.675
QB50P1 19 Apr 10:54:05 10:58:17 85° 258° (WSW) 11:02:31 145.935-145.965
ANTELSAT 19 Apr 10:56:13 11:00:19 37° 263° (W) 11:04:31 437.575/2403.000
DX 1 19 Apr 11:02:42 11:07:01 63° 285° (WNW) 11:11:18 434.975-435.025
BUGSAT 1 19 Apr 11:08:18 11:12:21 83° 261° (W) 11:16:23 437.445
UWE-3 19 Apr 11:10:31 11:14:27 26° 288° (WNW) 11:18:17 435.000/436.395/437.385
Cosmos 2491 19 Apr 11:16:17 11:24:55 60° 268° (W) 11:33:29 435.465 / 435.565
QB50P2 19 Apr 11:17:49 11:21:48 40° 261° (W) 11:25:47 145.880/145.840
HUMSAT D 19 Apr 11:18:02 11:22:16 52° 285° (WNW) 11:26:29 437.325/437.525
CINEMA 3 19 Apr 11:21:39 11:22:36 10° 293° (WNW) 11:23:12 145.822/145.860
FUNcube-1 19 Apr 11:40:07 11:43:02 16° 291° (WNW) 11:45:44 145.935
VELOX 1 19 Apr 11:41:39 11:45:58 52° 286° (WNW) 11:50:16 145.980
POPSAT HIP 1 19 Apr 11:41:45 11:45:04 22° 265° (W) 11:48:18 437.405
NANOSAT C BR1 19 Apr 11:41:51 11:45:10 22° 265° (W) 11:48:23 145.865
SO-50 19 Apr 11:55:32 11:58:55 21° 111° (ESE) 12:02:32 436.795
AIST 1 19 Apr 11:56:37 12:00:12 26° 77° (ENE) 12:03:50
AISAT 19 Apr 11:56:52 12:00:54 34° 287° (WNW) 12:04:53 437.250
UKube-1 19 Apr 11:57:17 12:00:03 16° 291° (WNW) 12:02:38 .
50 SAT 19 Apr 12:07:30 12:10:35 21° 289° (WNW) 12:13:33 437.505
CUBEBUG 1 19 Apr 12:07:53 12:12:09 56° 285° (WNW) 12:16:24 437.445
ESTCUBE 1 19 Apr 12:10:54 12:15:12 46° 286° (WNW) 12:19:29 437.505/2401.250
TISAT 1 19 Apr 12:16:50 12:20:37 31° 97° (E) 12:24:27 437.305
YUBILEINY 19 Apr 12:19:18 12:27:42 46° 283° (WNW) 12:36:02 435.215
SPROUT 19 Apr 12:20:06 12:24:15 45° 99° (E) 12:28:25 437.525
ISS 19 Apr 12:31:07 12:32:29 12° 127° (SE) 12:33:58 145.825
BEESAT 2 19 Apr 12:44:27 12:47:20 19° 51° (NE) 12:50:18 435.950
Oscar 19 19 Apr 12:45:48 12:50:37 44° 73° (ENE) 12:55:31 437.125/150
BEESAT 19 Apr 12:51:36 12:52:14 10° 90° (E) 12:53:15 436.000
BEESAT 3 19 Apr 12:51:44 12:55:11 26° 54° (NE) 12:58:38 437.485
SWISSCUBE 19 Apr 12:51:57 12:53:36 12° 91° (E) 12:55:35 437.505
Gurwin Techsat 1B 19 Apr 12:56:16 12:58:39 14° 66° (ENE) 13:01:21 435.225
RS-15 19 Apr 12:57:26 12:59:48 11° 101° (E) 13:03:26 29.354- 29.394
AIST 2 19 Apr 13:04:11 13:04:13 10° 45° (NE) 13:04:29 435.215
ITAMSAT 1 19 Apr 13:06:09 13:09:50 21° 68° (ENE) 13:13:40 435.822/435.867
AIST 1 19 Apr 13:34:43 13:37:42 18° 270° (W) 13:40:31
Cosmos 2504 19 Apr 13:34:45 13:43:10 56° 91° (E) 13:51:49 435.465 / 435.565
SO-50 19 Apr 13:35:02 13:39:16 34° 306° (NW) 13:43:35 436.795
ITUPSAT 1 19 Apr 13:50:31 13:55:09 52° 100° (E) 13:59:47 437.325
TISAT 1 19 Apr 13:53:22 13:56:12 17° 290° (WNW) 13:58:53 437.305
SPROUT 19 Apr 13:58:00 13:59:59 13° 291° (WNW) 14:01:46 437.525
JAS-2 19 Apr 14:01:01 14:04:08 13° 61° (ENE) 14:07:47 435.910
ISS 19 Apr 14:05:27 14:08:35 43° 320° (NW) 14:11:43 145.825
HORYU 2 19 Apr 14:15:51 14:18:09 14° 68° (ENE) 14:20:40 437.375
BEESAT 2 19 Apr 14:21:53 14:25:33 31° 247° (WSW) 14:29:07 435.950
BEESAT 19 Apr 14:25:52 14:30:34 61° 285° (WNW) 14:35:15 436.000
AO-7 19 Apr 14:26:36 14:33:07 28° 62° (ENE) 14:39:53 29.400- 29.500
Oscar 19 19 Apr 14:26:46 14:30:14 17° 268° (W) 14:33:29 437.125/150
SWISSCUBE 19 Apr 14:27:13 14:31:52 54° 286° (WNW) 14:36:29 437.505
BEESAT 3 19 Apr 14:29:58 14:33:05 21° 249° (WSW) 14:36:04 437.485
Gurwin Techsat 1B 19 Apr 14:32:54 14:38:09 64° 259° (W) 14:43:27 435.225
KKS-1 19 Apr 14:37:02 14:40:52 28° 96° (E) 14:44:45 437.445
AIST 2 19 Apr 14:39:11 14:43:24 74° 243° (WSW) 14:47:32 435.215
ITAMSAT 1 19 Apr 14:44:14 14:49:06 39° 262° (W) 14:53:56 435.822/435.867
RS-15 19 Apr 14:59:56 15:10:44 74° 115° (ESE) 15:21:43 29.354- 29.394
Cosmos 2504 19 Apr 15:29:38 15:37:04 28° 289° (WNW) 15:44:17 435.465 / 435.565
ITUPSAT 1 19 Apr 15:30:11 15:32:40 14° 293° (WNW) 15:34:53 437.325
JAS-2 19 Apr 15:40:25 15:48:07 75° 74° (ENE) 15:55:58 435.910
STARS 19 Apr 15:47:58 15:52:23 68° 285° (WNW) 15:56:47 437.465
HORYU 2 19 Apr 15:50:13 15:54:28 43° 261° (W) 15:58:45 437.375
MOZHAYETS 4 19 Apr 15:53:25 15:53:54 10° 89° (E) 15:54:45
KKS-1 19 Apr 16:13:54 16:17:22 22° 290° (WNW) 16:20:43 437.445
AO-7 19 Apr 16:17:21 16:25:30 58° 258° (WSW) 16:33:37 29.400- 29.500
GONETS M04 19 Apr 16:40:17 16:48:42 57° 92° (E) 16:57:17
CUTE-I 19 Apr 16:45:28 16:48:04 14° 66° (ENE) 16:50:57 437.470
Cubesat XI-IV 19 Apr 16:52:16 16:55:31 17° 67° (ENE) 16:59:00 437.490
RS-15 19 Apr 17:14:59 17:24:16 30° 318° (NW) 17:33:27 29.354- 29.394
MOZHAYETS 4 19 Apr 17:27:03 17:31:35 58° 285° (WNW) 17:36:04
JAS-2 19 Apr 17:28:28 17:33:51 19° 271° (W) 17:38:50 435.910
DANDE 19 Apr 17:45:18 17:47:47 33° 93° (E) 17:50:44 436.750
CUSAT 1 19 Apr 17:49:40 17:52:31 74° 97° (E) 17:56:04 437.405
M-CUBED/EXP-1 PRIME 19 Apr 18:12:38 18:16:41 38° 101° (ESE) 18:20:25 437.505
VERMONT LUNAR 19 Apr 18:12:50 18:16:00 37° 148° (SSE) 18:19:12 437.305
Cosmos 2499 19 Apr 18:17:02 18:25:01 42° 89° (E) 18:33:10 435.465 / 435.565
CUTE-I 19 Apr 18:22:25 18:27:42 61° 259° (W) 18:32:58 437.470
Cubesat XI-IV 19 Apr 18:30:05 18:35:16 51° 260° (W) 18:40:27 437.490
PCSat 19 Apr 18:36:04 18:41:08 41° 59° (ENE) 18:46:14 145.827
GONETS M04 19 Apr 18:38:58 18:46:08 26° 290° (WNW) 18:53:00
CUBESAT XI-V 19 Apr 18:44:21 18:48:57 67° 101° (E) 18:53:31 437.345
PRISM 19 Apr 18:58:09 19:02:12 58° 100° (E) 19:06:13 437.425
AUBIESAT-1 19 Apr 19:01:14 19:05:29 57° 290° (WNW) 19:09:21 437.475
PHONESAT 2.4 19 Apr 19:12:07 19:15:29 40° 148° (SSE) 19:18:53 2401.200-2431.200
BRITE-PL 19 Apr 19:13:39 19:16:35 20° 71° (ENE) 19:19:39 437.365/2234.400
STRAND 1 19 Apr 19:23:13 19:28:20 77° 102° (ESE) 19:33:25 437.568
HO-68 19 Apr 19:27:55 19:34:00 32° 66° (ENE) 19:40:14 435.675
GOMX 1 19 Apr 19:35:17 19:38:24 22° 71° (ENE) 19:41:40 467.674
RS-15 19 Apr 19:40:55 19:42:15 10° 352° (N) 19:43:20 29.354- 29.394
AAUSAT CUBESAT 2 19 Apr 19:42:59 19:44:05 11° 68° (ENE) 19:45:26 437.432
M-CUBED/EXP-1 PRIME 19 Apr 19:48:35 19:51:11 15° 298° (WNW) 19:53:31 437.505
VERMONT LUNAR 19 Apr 19:50:18 19:53:32 40° 342° (NNW) 19:56:46 437.305
Cosmos 2499 19 Apr 20:10:05 20:18:13 38° 285° (WNW) 20:26:12 435.465 / 435.565
PCSat 19 Apr 20:20:11 20:24:19 22° 253° (WSW) 20:28:17 145.827
COMPASS 1 19 Apr 20:27:01 20:31:03 46° 75° (ENE) 20:35:08 437.405
UWE-3 19 Apr 20:29:35 20:31:01 12° 68° (ENE) 20:32:43 435.000/436.395/437.385
ISS 19 Apr 20:36:13 20:39:01 26° 36° (NE) 20:41:49 145.825
CANX-2 19 Apr 20:38:53 20:43:08 72° 259° (W) 20:47:27 2200.000
CINEMA 3 19 Apr 20:39:16 20:43:08 38° 74° (ENE) 20:47:11 145.822/145.860
SEEDS 19 Apr 20:41:45 20:46:00 90° 174° (S) 20:50:18 437.485
YUBILEINY 19 Apr 20:42:15 20:44:13 11° 61° (ENE) 20:47:03 435.215
DOVE 4 19 Apr 20:42:53 20:47:01 85° 256° (WSW) 20:51:17 437.250
CUTE 1.7 + AOD 2 19 Apr 20:49:07 20:53:20 59° 260° (W) 20:57:35 437.475
PHONESAT 2.4 19 Apr 20:50:20 20:53:46 42° 342° (NNW) 20:57:11 2401.200-2431.200
BRITE-PL 19 Apr 20:51:37 20:55:04 24° 265° (W) 20:58:25 437.365/2234.400
FUNcube-1 19 Apr 20:55:30 20:58:25 19° 70° (ENE) 21:01:30 145.935
STRAND 1 19 Apr 21:05:53 21:06:59 10° 295° (WNW) 21:07:44 437.568
UKube-1 19 Apr 21:11:59 21:14:55 19° 70° (ENE) 21:17:59 .
GOMX 1 19 Apr 21:13:13 21:16:31 22° 266° (W) 21:19:45 467.674
HO-68 19 Apr 21:14:48 21:21:33 42° 261° (W) 21:28:16 435.675
AAUSAT CUBESAT 2 19 Apr 21:15:13 21:19:19 50° 261° (W) 21:23:26 437.432
ZACube-1 19 Apr 21:17:07 21:20:55 34° 73° (ENE) 21:24:53 437.345
CUBEBUG 2 19 Apr 21:22:42 21:26:53 66° 76° (ENE) 21:31:14 437.445
VERMONT LUNAR 19 Apr 21:28:48 21:31:35 23° 359° (N) 21:34:21 437.305
Oscar 11 19 Apr 21:31:41 21:36:01 76° 258° (WSW) 21:40:24 145.826/435.025
DELFI C3 19 Apr 21:33:24 21:37:30 84° 75° (ENE) 21:41:36 145.870
DX 1 19 Apr 21:54:00 21:58:17 64° 76° (ENE) 22:02:35 434.975-435.025
RS-15 19 Apr 21:55:06 22:01:42 17° 28° (NNE) 22:09:00 29.354- 29.394
UWE-3 19 Apr 22:03:03 22:07:08 48° 261° (W) 22:11:22 435.000/436.395/437.385
HUMSAT D 19 Apr 22:05:31 22:09:37 61° 76° (ENE) 22:13:48 437.325/437.525
COMPASS 1 19 Apr 22:05:37 22:07:03 11° 270° (W) 22:08:13 437.405
SO-50 19 Apr 22:09:52 22:14:50 70° 60° (ENE) 22:19:42 436.795
TIGRISAT 19 Apr 22:09:57 22:13:19 20° 93° (E) 22:16:48 435.000
UNISAT 6 19 Apr 22:11:04 22:14:34 21° 94° (E) 22:18:11 437.425
ISS 19 Apr 22:12:44 22:15:18 21° 230° (SW) 22:17:48 145.825
Cosmos 2491 19 Apr 22:16:33 22:23:53 33° 87° (E) 22:31:30 435.465 / 435.565
CINEMA 3 19 Apr 22:18:30 22:20:38 13° 270° (W) 22:22:34 145.822/145.860
O/OREOS (USA 219) 19 Apr 22:18:55 22:22:15 21° 102° (ESE) 22:25:43 437.305
POLYITAN 1 19 Apr 22:23:15 22:24:41 12° 91° (E) 22:26:24 437.675
PHONESAT 2.4 19 Apr 22:29:32 22:32:33 24° 359° (N) 22:35:33 2401.200-2431.200
FUNcube-1 19 Apr 22:30:50 22:34:34 29° 264° (W) 22:38:19 145.935
DUCHIFAT 1 19 Apr 22:31:48 22:34:04 15° 92° (E) 22:36:33 145.980
YUBILEINY 19 Apr 22:34:08 22:42:54 75° 82° (E) 22:51:36 435.215
VELOX 1 19 Apr 22:34:54 22:39:18 81° 77° (ENE) 22:43:43 145.980
QB50P1 19 Apr 22:44:08 22:47:23 21° 95° (E) 22:50:44 145.935-145.965
UKube-1 19 Apr 22:47:02 22:50:52 30° 263° (W) 22:54:40 .
50 SAT 19 Apr 22:47:51 22:51:46 61° 259° (W) 22:55:44 437.505
AISAT 19 Apr 22:50:09 22:54:30 63° 259° (W) 22:58:53 437.250
ANTELSAT 19 Apr 22:51:56 22:56:38 63° 100° (E) 23:01:16 437.575/2403.000
ZACube-1 19 Apr 22:54:50 22:57:28 15° 268° (W) 22:59:57 437.345
BUGSAT 1 19 Apr 22:55:28 22:58:23 19° 94° (E) 23:01:26 437.445
CUBEBUG 1 19 Apr 22:59:41 23:04:00 69° 76° (ENE) 23:08:19 437.445
ESTCUBE 1 19 Apr 23:06:00 23:10:31 86° 258° (WSW) 23:15:03 437.505/2401.250
VERMONT LUNAR 19 Apr 23:06:31 23:09:39 35° 15° (NNE) 23:12:47 437.305
TISAT 1 19 Apr 23:06:34 23:08:46 15° 69° (ENE) 23:11:10 437.305
QB50P2 19 Apr 23:07:08 23:11:14 42° 99° (E) 23:15:19 145.880/145.840
SPROUT 19 Apr 23:11:02 23:14:12 21° 71° (ENE) 23:17:29 437.525
NANOSAT C BR1 19 Apr 23:29:47 23:34:05 80° 102° (ESE) 23:38:22 145.865
POPSAT HIP 1 19 Apr 23:29:56 23:34:14 81° 102° (ESE) 23:38:32 437.405
Cosmos 2504 19 Apr 23:36:14 23:39:38 14° 63° (ENE) 23:43:31 435.465 / 435.565
TIGRISAT 19 Apr 23:45:53 23:50:09 33° 287° (WNW) 23:54:18 435.000
UNISAT 6 19 Apr 23:47:13 23:51:25 31° 288° (WNW) 23:55:29 437.425
SO-50 19 Apr 23:53:38 23:54:52 11° 252° (WSW) 23:55:45 436.795
POLYITAN 1 19 Apr 23:56:46 00:00:54 45° 286° (WNW) 00:05:01 437.675
O/OREOS (USA 219) 19 Apr 23:57:28 00:01:31 29° 296° (WNW) 00:05:31 437.305
RS-15 20 Apr 00:06:04 00:17:27 59° 56° (NE) 00:29:22 29.354- 29.394
DUCHIFAT 1 20 Apr 00:06:07 00:10:04 36° 286° (WNW) 00:13:59 145.980
PHONESAT 2.4 20 Apr 00:08:00 00:11:22 38° 16° (NNE) 00:14:43 2401.200-2431.200
Cosmos 2491 20 Apr 00:12:18 00:20:34 45° 284° (WNW) 00:28:46 435.465 / 435.565
QB50P1 20 Apr 00:19:40 00:23:14 25° 288° (WNW) 00:26:42 145.935-145.965
AIST 1 20 Apr 00:22:20 00:25:24 20° 90° (E) 00:28:37
BUGSAT 1 20 Apr 00:30:23 00:33:52 26° 288° (WNW) 00:37:18 437.445
ANTELSAT 20 Apr 00:31:19 00:32:55 11° 293° (WNW) 00:34:14 437.575/2403.000
YUBILEINY 20 Apr 00:33:15 00:38:56 18° 277° (W) 00:44:03 435.215
TISAT 1 20 Apr 00:40:25 00:44:18 36° 262° (W) 00:48:10 437.305
VERMONT LUNAR 20 Apr 00:44:00 00:47:16 48° 211° (SSW) 00:50:29 437.305
QB50P2 20 Apr 00:44:34 00:46:48 14° 291° (WNW) 00:48:49 145.880/145.840
SPROUT 20 Apr 00:46:36 00:50:11 25° 264° (W) 00:53:42 437.525
ITUPSAT 1 20 Apr 00:53:21 00:57:45 37° 73° (ENE) 01:02:12 437.325
Oscar 19 20 Apr 01:02:12 01:06:07 22° 94° (E) 01:10:11 437.125/150
Cosmos 2504 20 Apr 01:26:20 01:34:31 90° 285° (WNW) 01:42:04 435.465 / 435.565
BEESAT 20 Apr 01:27:56 01:32:44 87° 252° (WSW) 01:37:33 436.000
SWISSCUBE 20 Apr 01:29:21 01:34:08 77° 257° (WSW) 01:38:58 437.505
KKS-1 20 Apr 01:32:24 01:35:00 16° 69° (ENE) 01:37:48 437.445
PHONESAT 2.4 20 Apr 01:46:15 01:49:41 47° 211° (SSW) 01:53:05 2401.200-2431.200
AIST 1 20 Apr 01:59:19 02:02:57 25° 283° (WNW) 02:06:29
RS-15 20 Apr 02:19:12 02:29:33 36° 252° (WSW) 02:39:53 29.354- 29.394
ITUPSAT 1 20 Apr 02:32:26 02:35:48 18° 267° (W) 02:38:58 437.325
STARS 20 Apr 02:40:39 02:44:56 61° 75° (ENE) 02:49:17 437.465
Oscar 19 20 Apr 02:40:50 02:45:34 36° 288° (WNW) 02:50:15 437.125/150
BEESAT 3 20 Apr 02:42:44 02:44:31 13° 110° (ESE) 02:46:31 437.485
Gurwin Techsat 1B 20 Apr 02:53:19 02:58:38 74° 102° (ESE) 03:03:56 435.225
GONETS M04 20 Apr 02:56:52 03:03:14 23° 68° (ENE) 03:09:59
ITAMSAT 1 20 Apr 03:00:53 03:06:05 80° 283° (WNW) 03:11:15 435.822/435.867
KKS-1 20 Apr 03:07:16 03:11:23 37° 262° (W) 03:15:30 437.445
JUGNU 20 Apr 03:12:47 03:16:16 16° 169° (S) 03:19:48 437.505
Cosmos 2504 20 Apr 03:23:38 03:26:46 12° 280° (W) 03:29:12 435.465 / 435.565
HORYU 2 20 Apr 03:45:30 03:49:52 48° 100° (E) 03:54:13 437.375
BEESAT 2 20 Apr 04:11:20 04:15:23 62° 300° (WNW) 04:19:30 435.950
BEESAT 3 20 Apr 04:18:20 04:22:12 41° 302° (WNW) 04:26:08 437.485
AO-7 20 Apr 04:23:22 04:31:37 65° 103° (ESE) 04:39:53 29.400- 29.500
MOZHAYETS 4 20 Apr 04:24:24 04:29:03 80° 79° (E) 04:33:44
DANDE 20 Apr 04:25:52 04:32:30 42° 78° (ENE) 04:40:23 436.750
CUSAT 1 20 Apr 04:27:36 04:34:43 55° 79° (E) 04:42:51 437.405
AIST 2 20 Apr 04:32:56 04:37:08 65° 117° (ESE) 04:41:23 435.215
Gurwin Techsat 1B 20 Apr 04:36:03 04:38:04 12° 295° (WNW) 04:39:44 435.225
JAS-2 20 Apr 04:41:17 04:47:52 86° 284° (WNW) 04:53:38 435.910
GONETS M04 20 Apr 04:52:08 05:00:54 66° 267° (W) 05:09:34
M-CUBED/EXP-1 PRIME 20 Apr 04:56:27 05:00:30 30° 67° (ENE) 05:04:44 437.505
SRMSAT 20 Apr 04:58:27 05:02:03 17° 169° (S) 05:05:42 437.500
JUGNU 20 Apr 05:00:19 05:04:39 21° 178° (S) 05:08:59 437.505
HORYU 2 20 Apr 05:23:56 05:26:08 13° 292° (WNW) 05:28:06 437.375
CUBESAT XI-V 20 Apr 05:43:42 05:48:02 40° 74° (ENE) 05:52:22 437.345
AUBIESAT-1 20 Apr 05:43:59 05:48:38 90° 75° (ENE) 05:53:28 437.475
PRISM 20 Apr 05:44:47 05:48:10 25° 72° (ENE) 05:51:38 437.425
Cosmos 2499 20 Apr 06:06:35 06:14:26 65° 80° (E) 06:21:42 435.465 / 435.565
DANDE 20 Apr 06:09:13 06:15:44 35° 267° (W) 06:23:01 436.750
CUSAT 1 20 Apr 06:11:06 06:17:19 28° 269° (W) 06:23:48 437.405
AIST 2 20 Apr 06:14:37 06:16:13 12° 313° (NW) 06:17:37 435.215
AO-7 20 Apr 06:17:22 06:23:53 25° 299° (WNW) 06:30:07 29.400- 29.500
JAS-2 20 Apr 06:29:57 06:31:52 11° 301° (WNW) 06:33:18 435.910
M-CUBED/EXP-1 PRIME 20 Apr 06:31:31 06:35:20 24° 262° (W) 06:39:10 437.505
